GLOBALSTAR M001 1 25162U 98008A 25351.74794632 -.00000068 00000+0 21875-3 0 9999 2 25162 52.0008 158.9490 0000293 312.8167 60.5153 12.38223883266454 GLOBALSTAR M004 1 25163U 98008B 25351.92171166 -.00000070 00000+0 18886-3 0 9992 2 25163 51.9982 213.6170 0003206 358.3075 14.7864 12.63411026284915 GLOBALSTAR M002 1 25164U 98008C 25351.81139866 -.00000072 00000+0 91393-4 0 9999 2 25164 51.9986 139.7941 0002590 113.9908 246.1183 11.61514918205402 GLOBALSTAR M003 1 25165U 98008D 25351.79694462 -.00000197 00000+0 -11452-2 0 9990 2 25165 51.9927 19.9768 0007782 303.5148 227.9159 12.12041756255480 GLOBALSTAR M014 1 25306U 98023A 25351.68316499 -.00000087 00000+0 -18474-3 0 9993 2 25306 51.9857 59.4807 0000421 359.2599 166.3782 11.65483595212561 GLOBALSTAR M006 1 25307U 98023B 25351.60220009 -.00000094 00000+0 -36970-3 0 9996 2 25307 51.9927 119.0139 0004091 89.7336 283.0068 11.58178781238081 GLOBALSTAR M015 1 25308U 98023C 25351.89781517 -.00000067 00000+0 15891-3 0 9992 2 25308 51.9801 225.1727 0013579 45.3378 39.3946 11.48862737215194 GLOBALSTAR M008 1 25309U 98023D 25351.57294389 -.00000075 00000+0 16525-3 0 9998 2 25309 51.9988 26.3671 0002779 195.3002 325.3851 12.36076882260526 GLOBALSTAR M023 1 25621U 99004A 25351.79513924 -.00000058 00000+0 25685-3 0 9996 2 25621 52.0085 214.3475 0009935 167.8541 271.2235 12.62510583238921 GLOBALSTAR M040 1 25622U 99004B 25351.67366381 -.00000075 00000+0 16055-3 0 9997 2 25622 51.9897 219.1421 0001972 74.3014 321.8147 12.62025125238427 GLOBALSTAR M036 1 25623U 99004C 25351.78076699 -.00000097 00000+0 -21300-3 0 9994 2 25623 51.9961 116.3986 0010842 46.3259 101.7568 11.86618160200771 GLOBALSTAR M038 1 25624U 99004D 25351.68351964 -.00000072 00000+0 18798-3 0 9994 2 25624 51.9976 263.1194 0002656 69.5056 295.7226 12.32537458225006 GLOBALSTAR M022 1 25649U 99012A 25351.76269652 -.00000056 00000+0 37064-3 0 9990 2 25649 52.0012 151.8550 0003182 154.0589 219.5287 12.02508235198469 GLOBALSTAR M041 1 25650U 99012B 25351.80963997 -.00000081 00000+0 58105-4 0 9998 2 25650 52.0037 38.7769 0000811 331.7066 28.3726 11.96681260200261 GLOBALSTAR M046 1 25651U 99012C 25351.76192368 -.00000196 00000+0 -11838-2 0 9998 2 25651 52.0055 95.2900 0001471 238.8001 288.5695 12.09415858205876 GLOBALSTAR M037 1 25652U 99012D 25351.92562652 -.00000077 00000+0 15189-3 0 9995 2 25652 52.0026 344.4992 0001739 232.8639 140.1108 12.62458494234486 GLOBALSTAR M045 1 25676U 99019A 25351.71683642 -.00000090 00000+0 35028-4 0 9998 2 25676 51.9944 142.1656 0000974 118.6046 348.9445 12.27070568215925 GLOBALSTAR M019 1 25677U 99019B 25351.80161632 .00000035 00000+0 13063-2 0 9990 2 25677 51.9885 285.2140 0001700 356.1880 38.4955 12.13877353207447 GLOBALSTAR M044 1 25678U 99019C 25351.18924667 -.00000041 00000+0 59067-3 0 9990 2 25678 51.9971 261.1700 0006877 34.3335 117.5014 11.90261762193117 GLOBALSTAR M042 1 25679U 99019D 25351.75123507 -.00000064 00000+0 26823-3 0 9997 2 25679 52.0011 252.7449 0002984 336.7096 39.3722 12.22094315207701 GLOBALSTAR M025 1 25770U 99031A 25351.54810948 -.00000080 00000+0 -38298-3 0 9990 2 25770 51.9820 94.4996 0002983 99.3914 273.4148 11.22558932502303 GLOBALSTAR M049 1 25771U 99031B 25351.70703421 -.00000128 00000+0 -21932-2 0 9995 2 25771 51.9847 138.1174 0002227 345.9899 14.0835 11.12123444137840 GLOBALSTAR M047 1 25772U 99031C 25351.65228527 -.00000087 00000+0 -48300-3 0 9992 2 25772 51.9819 117.6823 0016165 214.0922 145.8847 11.31931765491889 GLOBALSTAR M052 1 25773U 99031D 25351.91435137 -.00000040 00000+0 87593-3 0 9994 2 25773 51.9854 243.7414 0003345 99.7276 343.8744 11.15062365499003 GLOBALSTAR M035 1 25851U 99037A 25351.77136846 -.00000073 00000+0 -34692-3 0 9995 2 25851 51.9984 5.5530 0013589 279.1985 251.9312 11.04540175116542 GLOBALSTAR M032 1 25852U 99037B 25351.80216613 -.00000042 00000+0 78156-3 0 9999 2 25852 51.9913 178.0163 0013772 113.6327 246.5920 11.19075220155345 GLOBALSTAR M051 1 25853U 99037C 25351.65615564 -.00000109 00000+0 -91742-3 0 9992 2 25853 51.9821 318.2946 0000231 37.0007 323.0819 11.42202824153356 GLOBALSTAR M030 1 25854U 99037D 25351.70976962 -.00000066 00000+0 18206-3 0 9996 2 25854 51.9872 112.5977 0003396 36.5884 323.5164 11.55110550171259 GLOBALSTAR M048 1 25872U 99041A 25351.15027777 -.00000054 00000+0 43578-3 0 9998 2 25872 51.9371 261.6238 0013316 137.2369 6.7706 11.33860984145734 GLOBALSTAR M026 1 25873U 99041B 25351.77171675 -.00000071 00000+0 -26110-3 0 9997 2 25873 51.9999 121.5724 0001835 177.6108 334.3353 11.06849570168817 GLOBALSTAR M043 1 25874U 99041C 25351.83660560 -.00000024 00000+0 13038-2 0 9992 2 25874 51.9430 14.9531 0013435 262.6293 268.0119 11.25697624143557 GLOBALSTAR M028 1 25875U 99041D 25351.73828808 -.00000048 00000+0 34159-3 0 9997 2 25875 51.9643 5.7422 0063536 110.1276 250.6436 12.50593072213149 GLOBALSTAR M024 1 25883U 99043A 25351.72465319 -.00000114 00000+0 -17308-2 0 9992 2 25883 52.0049 326.4968 0001770 32.4012 139.2373 11.10166225135241 GLOBALSTAR M027 1 25884U 99043B 25351.87410741 -.00000018 00000+0 17369-2 0 9997 2 25884 52.0236 49.3448 0020989 287.1061 72.7433 11.04372368161539 GLOBALSTAR M054 1 25885U 99043C 25351.75875809 -.00000069 00000+0 53718-4 0 9991 2 25885 52.0108 146.0931 0005926 126.4080 246.1712 11.39224916139973 GLOBALSTAR M053 1 25886U 99043D 25351.76470638 -.00000088 00000+0 -56620-3 0 9990 2 25886 51.9976 103.3587 0003611 52.1127 117.7591 11.27668939140158 GLOBALSTAR M058 1 25907U 99049A 25351.68199042 -.00000099 00000+0 -19929-3 0 9991 2 25907 51.9970 339.1922 0001720 270.4520 89.6117 11.93206482563445 GLOBALSTAR M050 1 25908U 99049B 25351.89380066 -.00000097 00000+0 -10020-3 0 9994 2 25908 52.0011 332.5772 0009385 37.8154 335.5223 12.07461753170385 GLOBALSTAR M033 1 25909U 99049C 25351.82683082 -.00000084 00000+0 74461-4 0 9997 2 25909 51.9877 191.9101 0013103 284.2269 75.7123 12.20294761558161 GLOBALSTAR M055 1 25910U 99049D 25351.83265991 -.00000044 00000+0 43382-3 0 9998 2 25910 51.9986 193.6979 0007525 144.1123 216.0236 12.29438227190871 GLOBALSTAR M057 1 25943U 99058A 25351.80930053 -.00000056 00000+0 33254-3 0 9999 2 25943 51.9952 187.0819 0003299 47.3348 312.7779 12.24832113189430 GLOBALSTAR M059 1 25944U 99058B 25351.61347312 -.00000099 00000+0 -16250-3 0 9994 2 25944 52.0033 70.9400 0000425 120.7879 27.1004 11.99988190596069 GLOBALSTAR M056 1 25945U 99058C 25351.71784954 -.00000102 00000+0 -17073-3 0 9992 2 25945 51.9976 67.9129 0001341 168.8254 4.1291 12.04781010184746 GLOBALSTAR M031 1 25946U 99058D 25351.65166691 -.00000043 00000+0 48267-3 0 9990 2 25946 51.9983 309.4344 0000939 181.2254 351.7896 12.16044933186865 GLOBALSTAR M039 1 25961U 99062A 25351.70383777 -.00000067 00000+0 20564-3 0 9990 2 25961 51.9857 69.7529 0002681 49.8396 310.2705 12.62339835203391 GLOBALSTAR M034 1 25962U 99062B 25351.45342190 -.00000044 00000+0 59075-3 0 9991 2 25962 51.9869 255.0001 0015092 29.6640 141.6738 11.79454078160015 GLOBALSTAR M029 1 25963U 99062C 25351.85350985 -.00000052 00000+0 42742-3 0 9999 2 25963 51.9827 318.1704 0002535 108.6025 262.3536 11.99904395191176 GLOBALSTAR M061 1 25964U 99062D 25351.70057785 -.00000104 00000+0 -38935-3 0 9994 2 25964 51.9802 80.8256 0005142 309.9585 205.1539 11.76777845142783 GLOBALSTAR M063 1 26081U 00008A 25351.25873339 -.00000133 00000+0 -74127-3 0 9993 2 26081 51.9983 349.4235 0004604 307.2905 65.3138 11.86178268179308 GLOBALSTAR M062 1 26082U 00008B 25351.16863356 -.00000117 00000+0 -13393-3 0 9992 2 26082 51.9860 277.6836 0007167 136.2685 2.7393 12.43478759519380 GLOBALSTAR M060 1 26083U 00008C 25351.76645171 -.00000067 00000+0 23363-3 0 9993 2 26083 52.0024 261.9080 0003491 122.4614 272.9483 12.17671248174733 GLOBALSTAR M064 1 26084U 00008D 25351.64827859 -.00000099 00000+0 -21977-3 0 9991 2 26084 52.0038 85.0621 0001856 76.8569 283.2471 11.88539212188917 GLOBALSTAR M065 1 31571U 07020A 25351.59775860 -.00000114 00000+0 -59491-4 0 9998 2 31571 51.9915 28.0181 0009699 356.5964 173.4742 12.62015524856566 GLOBALSTAR M069 1 31573U 07020C 25351.60034238 -.00000064 00000+0 26534-3 0 9993 2 31573 52.0047 46.0857 0002345 134.8220 19.1319 12.23464993856571 GLOBALSTAR M072 1 31574U 07020D 25351.79230138 -.00000048 00000+0 48998-3 0 9991 2 31574 51.9910 223.1696 0001287 13.8908 62.5460 11.91654445853350 GLOBALSTAR M071 1 31576U 07020F 25351.69015812 -.00000127 00000+0 -35667-3 0 9990 2 31576 52.0070 76.6225 0001602 123.3936 43.0801 12.18262655517302 GLOBALSTAR M067 1 32263U 07048A 25351.92484703 -.00000090 00000+0 55878-4 0 9994 2 32263 51.9711 218.2955 0001925 44.0888 329.4853 12.40682815832298 GLOBALSTAR M070 1 32264U 07048B 25351.74690299 -.00000094 00000+0 56511-4 0 9993 2 32264 51.9763 289.3014 0000463 62.6019 323.5450 12.62327423836858 GLOBALSTAR M066 1 32265U 07048C 25351.58142417 -.00000085 00000+0 82644-4 0 9996 2 32265 51.9573 219.2509 0005641 32.0367 339.2252 12.30383359837871 GLOBALSTAR M068 1 32266U 07048D 25351.79887455 -.00000092 00000+0 64765-4 0 9990 2 32266 51.9882 102.5393 0001653 151.1751 14.0371 12.62835551840751 GLOBALSTAR M079 1 37188U 10054A 25351.35267264 -.00000094 00000+0 56201-4 0 9999 2 37188 52.0058 302.2019 0000654 25.9959 140.5363 12.62269291699589 GLOBALSTAR M074 1 37189U 10054B 25351.61765498 -.00000104 00000+0 -10557-5 0 9999 2 37189 52.0032 300.6895 0000723 54.9021 115.9542 12.62264112700221 GLOBALSTAR M076 1 37190U 10054C 25351.84989568 -.00000095 00000+0 47426-4 0 9994 2 37190 52.0045 300.1713 0000823 43.6169 342.0087 12.62268212699971 GLOBALSTAR M077 1 37191U 10054D 25351.53972984 -.00000093 00000+0 -26548-3 0 9995 2 37191 51.9985 280.7019 0001176 29.9937 141.1280 11.68176555699917 GLOBALSTAR M075 1 37192U 10054E 25351.73634080 -.00000091 00000+0 72174-4 0 9994 2 37192 51.9972 342.6695 0000324 70.0279 101.0008 12.62270606699024 GLOBALSTAR M073 1 37193U 10054F 25351.49928859 -.00000074 00000+0 16780-3 0 9999 2 37193 52.0059 257.3545 0000920 49.0895 121.9600 12.62268021700986 GLOBALSTAR M083 1 37739U 11033A 25351.89346435 -.00000071 00000+0 18173-3 0 9996 2 37739 51.9836 204.6306 0000972 69.7153 35.3725 12.62265767670050 GLOBALSTAR M088 1 37740U 11033B 25351.60939785 -.00000125 00000+0 -11827-3 0 9993 2 37740 52.0207 111.4810 0000937 117.6604 255.2574 12.62271016665565 GLOBALSTAR M091 1 37741U 11033C 25351.73626295 -.00000098 00000+0 34870-4 0 9999 2 37741 52.0004 74.3303 0000610 134.5552 34.3601 12.62268262666368 GLOBALSTAR M085 1 37742U 11033D 25351.88177410 -.00000096 00000+0 46122-4 0 9997 2 37742 52.0145 25.0206 0000179 159.9398 11.2275 12.62267359666894 GLOBALSTAR M081 1 37743U 11033E 25351.59018587 -.00000087 00000+0 92331-4 0 9998 2 37743 51.9980 28.5496 0000222 94.7932 71.3857 12.62270971667009 GLOBALSTAR M089 1 37744U 11033F 25351.71008233 -.00000086 00000+0 98456-4 0 9993 2 37744 51.9954 342.3786 0000605 71.0769 100.6164 12.62262441667865 GLOBALSTAR M084 1 38040U 11080A 25351.78218281 -.00000075 00000+0 16100-3 0 9991 2 38040 51.9985 209.5456 0001341 77.6886 0.7891 12.62266665645851 GLOBALSTAR M080 1 38041U 11080B 25351.91743712 -.00000066 00000+0 20976-3 0 9995 2 38041 52.0034 210.7893 0000718 100.0129 3.3240 12.62264956645999 GLOBALSTAR M082 1 38042U 11080C 25351.75475788 -.00000087 00000+0 95242-4 0 9995 2 38042 52.0048 166.7650 0000844 107.4303 265.9600 12.62266367646682 GLOBALSTAR M092 1 38043U 11080D 25351.90077757 -.00000086 00000+0 10131-3 0 9999 2 38043 52.0082 256.7089 0000843 65.2395 11.6270 12.62268417645156 GLOBALSTAR M090 1 38044U 11080E 25351.89014784 -.00000098 00000+0 31990-4 0 9999 2 38044 52.0095 160.2506 0000933 90.7512 57.0741 12.62265519646819 GLOBALSTAR M086 1 38045U 11080F 25351.72651543 -.00000085 00000+0 10538-3 0 9992 2 38045 51.9870 160.9739 0001444 46.1286 327.7097 12.62281277646747 GLOBALSTAR M097 1 39072U 13005A 25351.67246222 -.00000126 00000+0 -12141-3 0 9999 2 39072 52.0055 75.8814 0000545 111.2947 248.7978 12.62267680593981 GLOBALSTAR M093 1 39073U 13005B 25351.64636467 -.00000108 00000+0 -23114-4 0 9994 2 39073 52.0115 69.2398 0000261 110.8391 249.2504 12.62271131593938 GLOBALSTAR M094 1 39074U 13005C 25351.72541576 -.00000100 00000+0 20066-4 0 9994 2 39074 51.9979 343.2974 0000289 17.6307 342.4570 12.62265398595558 GLOBALSTAR M096 1 39075U 13005D 25351.81764476 -.00000093 00000+0 58380-4 0 9992 2 39075 52.0090 31.6729 0000146 142.4175 217.6702 12.62269448594484 GLOBALSTAR M078 1 39076U 13005E 25351.63327858 -.00000116 00000+0 -68285-4 0 9994 2 39076 51.9864 116.4965 0000878 173.2896 186.7982 12.62272517593082 GLOBALSTAR M095 1 39077U 13005F 25351.65953409 -.00000122 00000+0 -10116-3 0 9990 2 39077 52.0070 113.7622 0000542 133.7975 226.2936 12.62267268592941 GLOBALSTAR M087 1 52888U 22064A 25351.75176741 -.00000075 00000+0 16178-3 0 9997 2 52888 51.9993 254.8251 0000696 49.2943 310.7984 12.62261530168227